EW2281 Weather Reports


Display with metric or nautical units.
time (UTC)temp
F
wind
direction
speed
MPH
gust
MPH
rain 1hr
in
rain 24hr
in
rain mn
in
humidity
%
barometer
mb
20260505090213 62 211 0.0 2.0 0.00 0.00 0.00 68 963.5
20260505085710 62 286 0.0 2.0 0.00 0.00 0.00 68 963.4
20260505084946 61 238 0.0 2.0 0.00 0.00 0.00 69 963.2
20260505084933 61 159 0.0 2.0 0.00 0.00 0.00 69 963.1
20260505084211 62 173 0.0 2.0 0.00 0.00 0.00 69 963.1
20260505083448 62 173 0.0 2.0 0.00 0.00 0.00 69 963.2
20260505082948 62 289 0.0 1.0 0.00 0.00 0.00 69 963.1
20260505082706 62 165 0.0 0.0 0.00 0.00 0.00 69 963.2
20260505081943 62 190 0.0 0.0 0.00 0.00 0.00 69 963.2
20260505081445 62 194 0.0 0.0 0.00 0.00 0.00 69 963.2
20260505080944 61 194 0.0 1.0 0.00 0.00 0.00 70 963.3
20260505080444 61 127 0.0 1.0 0.00 0.00 0.00 70 963.3
20260505075944 61 306 0.0 1.0 0.00 0.00 0.00 70 963.4
20260505075445 61 296 0.0 2.0 0.00 0.00 0.00 70 963.4
20260505074945 61 296 0.0 2.0 0.00 0.00 0.00 70 963.4
20260505074439 61 277 0.0 3.0 0.00 0.00 0.00 70 963.5
20260505073941 61 151 0.0 3.0 0.00 0.00 0.00 70 963.3
20260505073439 62 167 0.0 1.0 0.00 0.00 0.00 69 963.1
20260505072941 62 32 0.0 2.0 0.00 0.00 0.00 69 963.1
20260505072437 62 219 0.0 3.0 0.00 0.00 0.00 69 963.0
20260505071937 62 171 0.0 3.0 0.00 0.00 0.00 68 962.9
20260505071437 62 126 0.0 1.0 0.00 0.00 0.00 68 962.9
20260505070937 62 206 0.0 2.0 0.00 0.00 0.00 68 962.9
20260505070435 62 217 0.0 2.0 0.00 0.00 0.00 68 962.8
20260505065938 62 257 0.0 3.0 0.00 0.00 0.00 68 962.8
20260505065433 63 322 0.0 4.0 0.00 0.00 0.00 67 962.9
20260505064928 63 209 0.0 5.0 0.00 0.00 0.00 67 962.9
20260505064427 62 224 0.0 5.0 0.00 0.00 0.00 68 962.9
20260505064150 62 147 0.0 2.0 0.00 0.00 0.00 68 962.9
20260505063422 62 190 0.0 2.0 0.00 0.00 0.00 68 963.0
20260505063145 62 223 0.0 2.0 0.00 0.00 0.00 68 963.1
20260505062412 62 232 0.0 2.0 0.00 0.00 0.00 68 963.1
20260505061911 62 343 0.0 1.0 0.00 0.00 0.00 69 963.1
20260505061411 62 322 0.0 3.0 0.00 0.00 0.00 69 963.1
20260505060911 62 154 0.0 3.0 0.00 0.00 0.00 68 963.1
20260505060412 62 194 0.0 0.0 0.00 0.00 0.00 69 963.1
20260505055913 62 186 0.0 0.0 0.00 0.00 0.00 69 963.1
20260505055410 62 203 0.0 0.0 0.00 0.00 0.00 69 963.1
20260505054909 62 205 0.0 0.0 0.00 0.00 0.00 69 963.2
20260505054854 61 215 0.0 2.0 0.00 0.00 0.00 70 963.2
20260505053908 61 178 0.0 2.0 0.00 0.00 0.00 70 963.3
20260505053408 61 147 0.0 2.0 0.00 0.00 0.00 71 963.3
20260505052908 61 188 0.0 0.0 0.00 0.00 0.00 70 963.4
20260505052408 61 188 0.0 0.0 0.00 0.00 0.00 70 963.4
20260505051906 62 192 0.0 0.0 0.00 0.00 0.00 70 963.4
20260505051403 62 193 0.0 0.0 0.00 0.00 0.00 70 963.5
20260505050903 62 248 0.0 0.0 0.00 0.00 0.00 71 963.5
20260505050404 62 246 0.0 0.0 0.00 0.00 0.00 70 963.5
20260505041311 61 158 0.0 0.0 0.00 0.00 0.00 72 963.5
20260505040807 61 158 0.0 0.0 0.00 0.00 0.00 72 963.5
20260505040307 61 147 0.0 0.0 0.00 0.00 0.00 72 963.5
20260505040033 61 147 0.0 0.0 0.00 0.00 0.00 71 963.5
20260505035307 62 121 0.0 3.0 0.00 0.00 0.00 71 963.5
20260505034809 61 64 0.0 4.0 0.00 0.00 0.00 71 963.5
20260505034303 61 233 0.0 3.0 0.00 0.00 0.00 73 963.5
20260505033757 61 139 0.0 0.0 0.00 0.00 0.00 73 963.4
20260505033513 60 205 0.0 0.0 0.00 0.00 0.00 74 963.3
20260505032745 59 235 0.0 0.0 0.00 0.00 0.00 76 963.3
20260505032238 59 236 0.0 0.0 0.00 0.00 0.00 75 963.3
20260505031955 59 236 0.0 0.0 0.00 0.00 0.00 76 963.3
20260505031227 59 236 0.0 0.0 0.00 0.00 0.00 76 963.2
20260505030721 59 236 0.0 0.0 0.00 0.00 0.00 76 963.3
20260505030214 59 236 0.0 0.0 0.00 0.00 0.00 77 963.3
20260505025709 59 236 0.0 0.0 0.00 0.00 0.00 77 963.3
20260505025202 58 236 0.0 0.0 0.00 0.00 0.00 78 963.3
20260505024657 58 235 0.0 0.0 0.00 0.00 0.00 79 963.3
20260505024151 57 235 0.0 0.0 0.00 0.00 0.00 81 963.4
20260505023645 57 235 0.0 0.0 0.00 0.00 0.00 83 963.5
20260505023356 57 235 0.0 0.0 0.00 0.00 0.00 84 963.5
20260505022633 58 235 0.0 0.0 0.00 0.00 0.00 83 963.3
20260505022126 58 235 0.0 0.0 0.00 0.00 0.00 82 963.3
20260505021625 58 235 0.0 0.0 0.00 0.00 0.00 81 963.3
20260505021343 59 235 0.0 0.0 0.00 0.00 0.00 81 963.4
20260505020621 59 235 0.0 0.0 0.00 0.00 0.00 80 963.3
20260505020123 60 235 0.0 0.0 0.00 0.00 0.00 79 963.3
20260505015620 60 235 0.0 0.0 0.00 0.00 0.00 78 963.5
20260505015119 61 235 0.0 0.0 0.00 0.00 0.00 77 963.5
20260505014839 62 235 0.0 0.0 0.00 0.00 0.00 77 963.5
20260505014119 62 235 0.0 0.0 0.00 0.00 0.00 75 963.4
20260505013621 63 235 0.0 1.0 0.00 0.00 0.00 73 963.2
20260505013118 64 236 0.0 3.0 0.00 0.00 0.00 70 963.2
20260505012616 65 180 1.0 10.0 0.00 0.00 0.00 68 963.2
20260505012115 66 213 1.0 10.0 0.00 0.00 0.00 61 963.5
20260505011615 65 293 0.0 3.0 0.00 0.00 0.00 58 963.5
20260505011115 65 220 0.0 0.0 0.00 0.00 0.00 59 963.2
20260505010616 65 220 0.0 0.0 0.00 0.00 0.00 60 963.1
20260505010113 65 216 0.0 0.0 0.00 0.00 0.00 58 962.9
20260505005612 65 216 0.0 0.0 0.00 0.00 0.00 58 962.9
20260505005110 65 267 0.0 0.0 0.00 0.00 0.00 57 962.9
20260505004608 66 267 0.0 0.0 0.00 0.00 0.00 56 962.9
20260505004102 66 267 0.0 0.0 0.00 0.00 0.00 55 962.9
20260505003828 67 267 0.0 0.0 0.00 0.00 0.00 54 962.8
20260505003050 67 267 0.0 0.0 0.00 0.00 0.00 54 962.8
20260505003040 67 267 0.0 0.0 0.00 0.00 0.00 54 962.8
20260505002256 67 266 0.0 1.0 0.00 0.00 0.00 53 962.7
20260505001532 67 306 0.0 1.0 0.00 0.00 0.00 54 962.7
20260505001026 68 288 0.0 0.0 0.00 0.00 0.00 52 962.6
20260505000520 68 239 0.0 1.0 0.00 0.00 0.00 53 962.6
20260505000014 69 273 0.0 3.0 0.00 0.00 0.00 52 962.5
20260504235508 69 261 0.0 3.0 0.00 0.00 0.00 52 962.4
20260504235002 70 210 0.0 2.0 0.00 0.00 0.00 51 962.4
20260504234456 70 297 0.0 3.0 0.00 0.00 0.00 50 962.3
20260504233950 71 216 0.0 3.0 0.00 0.00 0.00 49 962.3
20260504233443 71 203 0.0 2.0 0.00 0.00 0.00 48 962.2
20260504232938 71 202 0.0 3.0 0.00 0.00 0.00 50 962.2
20260504232700 72 217 0.0 3.0 0.00 0.00 0.00 49 962.1
20260504231935 72 196 0.0 3.0 0.00 0.00 0.00 47 962.1
20260504231434 74 210 0.0 4.0 0.00 0.00 0.00 46 962.0
20260504230938 74 227 1.0 4.0 0.00 0.00 0.00 46 962.0
20260504230434 73 165 1.0 7.0 0.00 0.00 0.00 45 962.0
20260504225933 72 194 1.0 7.0 0.00 0.00 0.00 46 962.0
20260504225434 73 165 1.0 4.0 0.00 0.00 0.00 46 961.9
20260504224932 74 239 1.0 5.0 0.00 0.00 0.00 45 962.0
20260504224431 74 194 1.0 5.0 0.00 0.00 0.00 43 962.0
20260504224156 74 196 1.0 5.0 0.00 0.00 0.00 44 961.9
20260504223430 73 234 1.0 4.0 0.00 0.00 0.00 47 961.9
20260504222927 72 40 1.0 5.0 0.00 0.00 0.00 46 961.9
20260504222428 72 219 1.0 6.0 0.00 0.00 0.00 45 961.9
20260504222151 72 140 1.0 8.0 0.00 0.00 0.00 46 961.9
20260504221431 73 175 1.0 8.0 0.00 0.00 0.00 44 961.8
20260504221154 74 202 2.0 7.0 0.00 0.00 0.00 44 961.8
20260504220424 73 204 2.0 7.0 0.00 0.00 0.00 42 961.9
20260504215921 74 202 1.0 5.0 0.00 0.00 0.00 41 961.9
20260504215422 76 211 1.0 5.0 0.00 0.00 0.00 40 962.0
20260504214920 76 169 2.0 5.0 0.00 0.00 0.00 41 961.9
20260504214420 76 174 1.0 5.0 0.00 0.00 0.00 40 962.0
20260504214136 76 286 1.0 5.0 0.00 0.00 0.00 41 961.9
20260504213640 76 165 2.0 9.0 0.00 0.00 0.00 40 961.9
20260504212919 75 175 1.0 9.0 0.00 0.00 0.00 39 961.8
20260504212419 75 223 1.0 7.0 0.00 0.00 0.00 39 961.8
20260504211920 76 217 1.0 7.0 0.00 0.00 0.00 38 961.9
20260504211419 77 212 1.0 4.0 0.00 0.00 0.00 37 961.9
20260504210917 77 192 1.0 3.0 0.00 0.00 0.00 38 961.9
20260504210416 77 263 1.0 3.0 0.00 0.00 0.00 39 961.9
20260504205918 77 146 1.0 4.0 0.00 0.00 0.00 39 962.0
20260504205416 76 344 1.0 6.0 0.00 0.00 0.00 38 962.0
20260504205134 76 190 2.0 6.0 0.00 0.00 0.00 39 962.1
20260504204414 76 195 2.0 6.0 0.00 0.00 0.00 39 962.0
20260504203917 76 215 2.0 8.0 0.00 0.00 0.00 40 962.1
20260504203411 75 306 2.0 8.0 0.00 0.00 0.00 36 962.1
20260504202904 76 196 3.0 10.0 0.00 0.00 0.00 38 962.2
20260504202357 76 222 3.0 10.0 0.00 0.00 0.00 36 962.1
20260504201857 76 228 2.0 8.0 0.00 0.00 0.00 37 962.1
20260504201358 76 217 2.0 7.0 0.00 0.00 0.00 36 962.2
20260504200857 75 215 2.0 8.0 0.00 0.00 0.00 36 962.3
20260504200356 75 209 2.0 8.0 0.00 0.00 0.00 34 962.4
20260504195857 75 215 2.0 10.0 0.00 0.00 0.00 35 962.4
20260504195357 75 328 2.0 10.0 0.00 0.00 0.00 34 962.6
20260504194858 76 202 1.0 6.0 0.00 0.00 0.00 34 962.7
20260504194617 75 251 2.0 8.0 0.00 0.00 0.00 35 962.8
20260504193858 75 218 2.0 8.0 0.00 0.00 0.00 35 962.8
20260504193352 75 192 2.0 7.0 0.00 0.00 0.00 34 962.8
20260504192853 76 299 2.0 10.0 0.00 0.00 0.00 34 962.9
20260504192624 76 235 2.0 10.0 0.00 0.00 0.00 35 963.0
20260504191854 76 251 2.0 10.0 0.00 0.00 0.00 33 963.0
20260504191353 75 248 2.0 6.0 0.00 0.00 0.00 37 963.1
20260504190854 75 199 2.0 7.0 0.00 0.00 0.00 36 963.2
20260504190353 75 222 2.0 7.0 0.00 0.00 0.00 33 963.3
20260504185854 75 244 2.0 7.0 0.00 0.00 0.00 35 963.3
20260504185353 76 208 2.0 6.0 0.00 0.00 0.00 33 963.5
20260504184853 75 163 2.0 6.0 0.00 0.00 0.00 39 963.4
20260504184353 75 211 2.0 7.0 0.00 0.00 0.00 39 963.5
20260504183853 74 94 2.0 7.0 0.00 0.00 0.00 37 963.5
20260504183352 74 225 2.0 8.0 0.00 0.00 0.00 39 963.7
20260504182853 74 348 2.0 9.0 0.00 0.00 0.00 39 963.8
20260504182618 73 227 2.0 9.0 0.00 0.00 0.00 41 963.8
20260504181854 73 211 2.0 9.0 0.00 0.00 0.00 38 963.9
20260504181353 74 236 2.0 9.0 0.00 0.00 0.00 37 964.0
20260504180853 74 203 2.0 5.0 0.00 0.00 0.00 36 964.0
20260504180353 74 298 2.0 7.0 0.00 0.00 0.00 38 964.0
20260504175852 74 208 2.0 10.0 0.00 0.00 0.00 39 964.0
20260504175351 73 169 2.0 10.0 0.00 0.00 0.00 42 964.1
20260504174850 73 211 2.0 8.0 0.00 0.00 0.00 42 964.2
20260504174351 72 210 2.0 8.0 0.00 0.00 0.00 42 964.1
20260504173849 73 233 2.0 6.0 0.00 0.00 0.00 42 964.3
20260504173350 73 166 1.0 6.0 0.00 0.00 0.00 43 964.3
20260504172849 72 194 1.0 6.0 0.00 0.00 0.00 43 964.5
20260504172348 72 191 2.0 6.0 0.00 0.00 0.00 44 964.6
20260504172107 71 142 2.0 6.0 0.00 0.00 0.00 44 964.6
20260504171607 72 218 1.0 4.0 0.00 0.00 0.00 43 964.8
20260504170844 71 205 2.0 7.0 0.00 0.00 0.00 42 964.8
20260504170605 71 164 1.0 7.0 0.00 0.00 0.00 44 964.9
20260504151139 65 248 1.0 5.0 0.00 0.00 0.00 51 966.4
20260504150633 64 240 1.0 3.0 0.00 0.00 0.00 50 966.4
20260504150351 64 219 1.0 4.0 0.00 0.00 0.00 51 966.5
20260504141121 60 197 1.0 5.0 0.00 0.00 0.00 51 966.8
20260504140621 59 184 1.0 8.0 0.00 0.00 0.00 55 966.7
20260504140120 59 227 1.0 8.0 0.00 0.00 0.00 54 966.8
20260504130545 55 198 0.0 2.0 0.00 0.00 0.00 56 967.0
20260504110510 47 237 0.0 1.0 0.00 0.00 0.00 63 967.2
20260504110241 47 267 0.0 2.0 0.00 0.00 0.00 64 967.2
20260504100509 45 144 0.0 0.0 0.00 0.00 0.00 67 967.3